Temperature
12 13 12 12 13 12 12 12 12 12 13 14 14 13 14 15 14 14 13 13 13 12 11 11 10 9 9 9 8 8 7 7 6 6 5 5 5 4 4 3 3 3 2 2
12 13 12 12 12 12 12 12 12 12 13 13 14 14 14 14 13 13 13 13 12 12 11 10 10 9 9 8 8 7 7 6 6 5 5 4 4 3 3 3 2 2 2 1
10 12 12 11 12 12 12 12 12 13 14 14 13 11 13 14 13 13 13 13 12 11 10 10 9 9 8 8 7 6 6 6 5 5 4 4 3 3 2 2 2 1 1 1
9 11 10 12 12 13 13 13 12 12 13 12 12 13 13 14 14 13 13 12 11 10 10 9 9 8 8 7 6 6 5 5 5 4 4 3 3 2 2 1 1 1 1 0
8 9 9 11 12 12 12 12 12 12 12 11 11 11 11 12 13 13 12 12 11 10 9 9 8 7 7 6 6 5 5 4 4 3 3 2 2 2 1 1 1 0 -0 -1
7 9 9 11 13 13 13 12 12 11 10 9 10 9 10 12 12 12 11 10 9 9 8 8 7 7 6 6 5 5 4 4 3 3 2 2 1 1 1 0 -0 -0 -1 -1
7 8 8 10 12 12 12 12 13 12 11 10 9 10 12 11 11 10 10 9 9 8 7 7 6 6 5 5 4 4 3 3 3 2 2 1 1 1 0 -0 -1 -1 -1 -1
7 7 8 10 10 11 12 12 12 12 12 11 11 11 11 10 10 9 8 8 7 7 6 6 5 5 4 4 3 3 3 2 2 2 1 1 0 -0 -0 -1 -1 -1 -2 -2
9 10 10 11 12 13 13 13 13 13 13 12 11 10 9 9 8 8 7 7 6 6 6 5 4 4 4 3 3 2 2 2 1 1 1 0 -0 -1 -1 -1 -2 -2 -3 -3
8 8 9 11 12 12 13 13 13 12 12 12 11 10 9 8 7 7 6 6 6 5 5 4 4 3 3 2 2 2 2 1 1 0 0 -0 -1 -1 -2 -2 -3 -3 -4 -4
8 8 8 9 11 12 12 12 12 11 11 11 10 9 8 7 6 6 5 5 5 4 4 3 3 3 2 2 1 1 1 0 0 -0 -1 -1 -1 -2 -2 -3 -4 -4 -5 -5
9 8 8 10 12 11 11 11 11 10 10 9 9 8 7 6 6 5 5 4 4 3 3 3 3 2 2 1 1 0 0 -0 -0 -1 -1 -2 -2 -2 -3 -3 -4 -5 -5 -6
11 11 11 11 11 11 11 10 10 9 9 8 7 7 6 6 5 4 4 3 3 3 3 2 2 2 1 1 0 -0 -0 -1 -1 -2 -2 -3 -3 -4 -4 -4 -4 -5 -5 -6
11 11 9 10 10 10 9 9 8 8 7 7 6 6 5 4 4 3 3 3 2 2 2 2 1 1 1 0 -0 -0 -1 -1 -2 -3 -3 -4 -4 -5 -5 -6 -6 -5 -6 -6
9 10 10 9 9 8 8 7 7 6 6 5 5 4 4 4 3 3 2 2 2 2 1 1 1 1 0 -0 -1 -1 -2 -2 -3 -3 -4 -4 -5 -6 -6 -6 -7 -7 -7 -7
8 8 8 8 7 7 6 6 6 5 5 4 4 3 3 3 2 2 2 1 1 1 1 0 0 -0 -1 -1 -1 -2 -3 -3 -4 -5 -5 -5 -6 -6 -7 -7 -7 -7 -8 -8
7 6 6 6 6 5 5 5 5 4 4 3 3 2 2 2 2 1 1 1 1 1 0 -0 -1 -1 -1 -2 -2 -3 -4 -4 -5 -5 -6 -6 -7 -7 -7 -8 -8 -8 -8 -8
7 7 7 6 5 5 4 4 3 3 3 2 2 2 1 1 1 1 0 0 0 0 -0 -1 -1 -1 -2 -3 -3 -4 -4 -5 -5 -6 -6 -7 -7 -8 -8 -8 -8 -8 -9 -9
5 5 5 5 4 4 3 3 2 2 2 2 1 1 1 1 0 -0 -0 -0 -0 -1 -1 -2 -2 -2 -3 -3 -4 -5 -5 -6 -6 -7 -7 -8 -8 -8 -9 -9 -9 -9 -9 -9
4 4 4 3 3 3 2 2 2 1 1 1 1 0 0 -0 -0 -1 -1 -1 -1 -2 -3 -3 -3 -3 -4 -5 -5 -6 -6 -7 -7 -8 -8 -9 -9 -9 -9 -10 -10 -10 -10 -10
3 3 2 2 2 1 1 1 1 1 0 0 -0 -0 -1 -1 -1 -2 -2 -2 -2 -3 -3 -4 -4 -5 -5 -6 -7 -7 -8 -8 -8 -9 -9 -9 -10 -10 -10 -10 -11 -11 -11 -11
2 2 1 1 1 1 0 0 0 -0 -0 -1 -1 -1 -1 -2 -2 -2 -3 -3 -3 -4 -4 -5 -5 -6 -7 -7 -8 -8 -8 -9 -9 -9 -10 -10 -11 -11 -11 -11 -11 -11 -12 -12
1 1 1 0 0 -0 -0 -0 -1 -1 -1 -1 -2 -2 -2 -3 -3 -4 -4 -4 -4 -5 -6 -6 -6 -7 -8 -8 -9 -9 -9 -10 -10 -10 -11 -11 -11 -11 -12 -12 -12 -12 -12 -12
0 -0 -0 -0 -1 -1 -1 -1 -1 -2 -2 -2 -3 -3 -3 -4 -4 -4 -5 -5 -6 -6 -7 -7 -8 -8 -9 -9 -9 -10 -10 -10 -11 -11 -11 -12 -12 -12 -12 -12 -12 -13 -13 -13
-0 -1 -1 -1 -1 -1 -2 -2 -2 -2 -3 -3 -3 -3 -4 -4 -5 -5 -6 -6 -6 -7 -7 -8 -8 -9 -9 -10 -10 -10 -11 -11 -12 -12 -12 -12 -12 -13 -13 -13 -13 -13 -13 -13
-1 -1 -2 -2 -2 -2 -3 -3 -3 -3 -4 -4 -4 -4 -5 -5 -6 -6 -7 -7 -7 -8 -8 -9 -9 -10 -10 -11 -11 -11 -12 -12 -12 -12 -12 -13 -13 -13 -13 -13 -13 -13 -13 -13
-2 -2 -2 -3 -3 -3 -3 -4 -4 -4 -5 -5 -5 -5 -6 -6 -7 -7 -8 -8 -8 -9 -9 -10 -10 -11 -11 -11 -12 -12 -12 -12 -13 -13 -13 -13 -13 -13 -14 -14 -14 -14 -14 -14
Wind_Speed
7 6 6 9 10 13 14 13 11 11 12 14 11 10 9 8 8 9 10 12 14 13 12 11 11 10 9 8 7 6 6 5 4 4 4 4 4 5 5 6 7 7 8 8
7 8 8 8 10 11 13 12 13 12 13 11 7 5 6 8 9 11 11 12 12 12 13 13 12 11 9 8 7 6 6 5 4 4 4 5 6 6 6 7 7 7 8 9
6 5 3 8 10 11 8 9 10 15 18 10 6 8 10 10 11 12 12 11 12 13 13 12 11 11 10 8 6 6 5 4 4 4 5 6 6 6 7 7 7 8 9 9
4 4 8 9 7 10 10 10 11 10 9 8 9 6 4 6 10 10 10 11 11 10 10 9 8 8 8 7 6 5 4 4 4 5 6 6 6 7 8 7 8 8 9 10
5 6 7 8 6 7 9 10 8 10 9 4 4 4 3 2 5 8 9 9 9 9 9 9 9 8 8 6 5 4 4 5 5 5 6 6 7 8 8 7 8 8 9 10
6 6 8 9 6 4 5 7 7 7 8 7 8 3 5 3 5 7 8 9 9 9 9 9 7 7 7 5 4 4 5 6 6 6 7 8 8 9 7 7 9 9 9 9
6 7 8 9 4 6 6 9 4 7 8 10 9 6 4 7 6 8 9 9 10 10 9 7 7 7 5 4 5 6 5 5 6 6 7 8 8 7 8 8 9 9 10 10
7 6 10 7 8 9 9 3 5 6 7 8 6 6 7 8 9 10 9 9 9 9 7 5 6 6 4 4 5 5 5 6 7 7 7 7 8 8 8 8 9 10 10 10
10 10 6 7 9 6 6 6 6 6 6 8 8 7 7 8 9 8 9 8 7 8 6 4 4 4 4 5 4 4 5 6 7 8 7 7 8 9 8 8 8 9 9 10
5 7 5 5 4 4 6 6 6 6 8 9 8 9 9 9 8 8 7 7 6 7 5 3 3 3 4 5 4 5 6 7 7 7 8 8 7 7 7 8 8 9 10 11
6 4 2 4 7 6 5 5 6 6 6 9 10 9 9 8 8 7 6 5 5 5 4 4 3 3 4 4 4 5 7 7 7 7 8 8 8 7 9 8 10 11 10 9
8 9 8 8 7 8 8 7 8 8 6 6 9 10 9 8 7 6 6 5 4 4 3 3 3 5 5 5 5 6 7 7 6 6 7 7 8 10 13 15 21 22 21 20
6 5 5 3 5 7 7 7 7 8 9 8 7 8 8 7 6 6 6 5 4 4 4 4 4 6 7 6 5 6 7 8 7 7 7 8 8 9 12 14 18 20 21 23
6 7 5 5 5 6 7 7 8 7 7 8 7 8 8 7 6 6 5 4 3 3 4 4 5 7 7 6 6 8 8 9 9 7 7 8 8 9 10 12 14 11 14 20
5 5 6 6 7 8 8 9 10 8 8 7 7 8 8 7 6 4 3 2 2 3 4 5 6 8 7 7 7 8 8 7 7 7 8 8 9 9 10 12 13 13 11 13
6 6 8 9 9 9 9 9 9 8 8 7 7 7 6 6 4 3 2 2 2 5 6 6 8 9 8 7 8 7 7 13 12 8 7 8 8 10 11 11 12 12 12 12
9 8 8 8 9 8 7 7 9 9 8 8 7 6 6 4 3 1 2 3 4 6 7 7 9 9 8 8 8 7 7 10 15 12 8 9 10 10 11 12 12 12 12 14
7 8 9 11 10 10 9 8 9 8 7 6 7 6 4 3 3 3 4 4 5 7 8 8 8 8 8 8 8 7 7 8 8 9 10 9 11 10 11 12 13 14 13 14
8 9 10 10 10 10 9 8 8 7 7 6 6 4 2 2 3 4 4 5 7 9 8 8 13 10 9 10 12 7 8 9 10 10 10 14 14 10 10 12 13 13 13 13
10 11 12 11 10 9 9 8 8 7 5 5 4 2 1 3 4 5 5 6 7 7 8 10 10 9 9 10 14 8 8 10 11 10 10 10 11 11 10 11 12 13 12 12
12 12 13 12 10 9 8 8 7 5 4 3 2 2 3 5 5 5 5 7 8 8 9 13 9 8 8 11 15 8 9 9 10 10 10 11 11 12 12 12 12 13 13 12
10 11 11 11 10 8 6 5 5 4 2 1 1 2 4 6 6 6 7 7 9 12 9 7 7 12 15 18 9 8 9 9 10 9 10 10 11 12 12 12 12 13 12 11
10 10 10 9 8 6 5 4 3 2 0 2 3 4 5 6 5 6 9 6 6 13 11 8 13 21 24 14 8 8 9 10 10 10 10 11 11 12 12 12 12 12 11 12
9 9 8 6 6 5 3 1 1 1 2 4 5 5 6 6 6 6 7 12 16 18 10 14 22 24 23 9 8 8 10 10 11 11 11 12 11 11 11 12 12 12 12 13
8 7 6 6 4 2 1 2 2 3 3 4 6 6 6 5 7 8 7 9 15 18 11 15 22 23 14 9 10 10 10 11 12 12 11 11 11 12 12 12 12 13 13 13
5 5 4 3 2 1 1 1 2 3 4 5 6 6 6 6 7 8 8 9 12 17 13 10 11 15 11 11 11 12 11 13 14 12 12 13 13 13 13 13 14 13 13 13
5 4 3 3 2 2 1 2 3 4 5 6 8 7 7 7 8 9 10 10 10 11 11 11 10 11 11 12 12 12 12 12 12 12 12 12 12 13 13 14 14 13 13 13
Wind_Direction
212 212 179 202 211 203 205 213 219 236 238 248 247 238 230 217 198 187 188 187 186 182 175 168 163 162 160 159 160 158 158 172 200 218 227 239 253 263 270 274 274 276 281 284
221 223 213 226 227 213 215 222 230 246 258 246 243 221 215 207 194 194 195 190 182 174 168 167 165 161 157 161 165 161 169 194 214 227 241 252 259 266 272 275 276 277 278 280
216 223 206 242 222 210 208 209 204 229 245 243 226 218 215 208 199 200 195 183 175 172 169 166 163 159 162 165 160 162 181 208 227 239 252 258 264 270 272 273 274 278 277 276
175 162 223 240 225 208 215 232 218 225 241 228 223 219 218 203 195 196 184 172 166 158 153 150 148 148 147 148 156 170 195 226 242 247 256 264 269 270 270 269 271 273 276 275
160 203 258 284 245 194 203 247 229 224 233 200 130 81 332 261 192 185 172 158 152 147 142 140 143 144 141 149 160 182 220 240 248 248 255 264 267 268 269 271 273 272 272 274
155 184 223 237 229 184 152 255 242 200 196 171 139 169 245 201 143 133 129 131 131 129 126 133 141 140 142 160 179 218 236 246 251 248 250 258 262 267 269 270 271 275 276 274
179 210 247 246 217 127 178 240 215 180 178 169 184 199 172 132 122 127 126 126 128 127 131 140 141 137 149 176 219 237 246 253 258 256 255 259 264 267 272 276 278 278 280 279
177 204 244 221 152 183 211 177 161 167 171 172 166 126 129 131 131 129 124 123 126 126 129 135 139 143 169 220 240 251 256 261 264 265 267 270 268 274 275 277 281 283 284 285
193 212 230 187 196 202 161 165 176 169 167 151 145 150 144 140 137 133 131 131 128 132 133 138 151 160 199 237 250 257 263 266 268 272 271 271 271 277 282 280 281 286 287 290
211 242 229 209 199 175 172 175 172 163 157 154 156 154 147 144 141 137 133 133 131 134 144 170 194 203 220 246 256 260 268 273 274 276 279 278 274 273 277 279 281 285 288 290
212 232 168 225 208 187 160 142 136 136 153 158 148 150 151 150 148 144 137 135 139 150 171 206 228 246 252 257 263 268 271 273 276 274 275 280 277 270 276 266 272 286 286 285
207 202 185 209 198 172 162 167 159 145 139 143 150 148 143 145 144 140 139 139 145 163 192 227 245 262 269 267 259 261 270 273 273 275 276 277 283 289 283 284 291 293 294 294
188 162 160 158 153 161 164 161 153 148 147 141 137 137 137 135 137 136 138 148 171 197 220 240 256 267 271 270 263 259 263 272 274 273 277 279 282 289 297 299 294 293 295 296
148 125 130 162 164 153 141 132 121 114 118 126 126 125 125 124 131 141 158 179 196 218 241 252 263 270 272 271 268 266 268 276 280 271 273 277 279 282 287 294 301 297 294 295
176 161 157 146 130 125 124 123 121 120 117 112 117 124 128 134 147 161 174 185 210 247 260 266 270 274 278 274 270 270 272 272 272 270 271 274 278 282 285 287 291 294 295 295
149 120 126 135 141 138 133 135 137 138 134 127 127 130 134 137 145 159 188 204 232 260 267 271 271 275 280 279 276 275 272 282 290 284 277 279 281 284 287 288 289 290 292 294
144 152 154 154 152 148 146 143 143 141 136 134 137 133 128 127 138 205 251 256 253 261 267 268 272 278 281 276 271 271 271 279 290 290 280 281 282 283 284 286 287 289 289 291
168 166 161 157 152 141 131 127 129 131 134 135 130 128 136 158 207 249 271 286 289 286 277 267 270 278 275 273 272 270 270 272 273 277 280 280 283 283 285 288 290 291 292 294
124 128 128 129 131 130 127 125 124 122 122 125 130 144 168 211 241 264 277 283 284 287 285 280 297 297 284 282 290 273 271 277 281 280 280 287 292 287 287 289 291 291 292 294
107 110 110 109 108 113 116 117 115 113 117 123 127 141 242 268 270 274 275 272 264 260 270 285 290 282 278 281 292 278 274 278 283 286 287 286 287 289 291 291 292 293 293 293
110 109 109 108 103 102 109 115 116 117 117 121 146 224 264 279 280 276 277 286 282 273 278 291 292 283 285 288 293 282 278 280 284 287 290 291 290 291 291 290 290 293 294 295
107 109 108 108 107 101 95 98 106 111 107 102 269 270 280 287 288 282 263 261 276 291 296 281 280 290 298 300 291 283 281 283 286 286 285 286 288 289 290 290 291 292 293 292
107 107 107 106 108 105 90 83 87 96 117 283 284 283 279 277 278 283 293 280 280 296 301 284 294 301 304 304 292 287 286 286 286 286 286 285 285 286 287 288 289 290 290 289
104 101 100 97 96 94 84 51 20 339 292 286 281 278 279 286 285 266 267 293 304 304 299 297 304 305 308 304 291 288 287 286 285 284 283 283 283 284 284 285 286 286 286 286
103 101 100 98 92 89 61 354 341 323 308 296 290 285 276 267 276 289 288 291 301 306 299 301 304 306 306 292 289 286 285 283 285 287 284 286 287 286 285 285 285 286 287 286
98 98 94 92 99 82 358 336 316 309 308 305 300 294 291 287 285 290 293 293 292 301 303 297 295 298 294 289 287 287 285 288 290 288 284 284 284 284 285 285 284 285 286 286
84 80 74 58 37 21 348 317 303 301 302 301 301 300 298 299 298 299 299 300 299 298 297 296 294 292 290 289 288 287 286 285 285 284 284 285 285 285 286 285 286 286 286 286
Height
1470 1468 1471 1472 1472 1474 1479 1479 1483 1477 1474 1466 1462 1461 1460 1461 1462 1464 1466 1469 1471 1474 1478 1482 1487 1491 1495 1498 1500 1502 1503 1503 1504 1503 1502 1501 1500 1498 1496 1493 1490 1487 1484 1480
1467 1465 1468 1468 1467 1469 1470 1470 1472 1471 1467 1457 1456 1457 1457 1458 1459 1460 1462 1464 1467 1470 1474 1478 1483 1487 1491 1494 1497 1498 1499 1499 1499 1499 1498 1497 1495 1493 1490 1488 1485 1481 1478 1474
1472 1465 1466 1471 1463 1462 1463 1461 1462 1464 1456 1451 1454 1453 1453 1453 1454 1455 1457 1460 1463 1466 1470 1475 1480 1485 1488 1491 1493 1494 1495 1495 1495 1494 1493 1491 1489 1487 1484 1481 1478 1475 1471 1467
1471 1470 1476 1461 1450 1450 1452 1451 1451 1450 1447 1447 1447 1448 1449 1450 1451 1452 1455 1458 1461 1465 1469 1474 1479 1483 1486 1488 1490 1490 1491 1491 1490 1489 1488 1486 1484 1481 1478 1475 1471 1468 1464 1460
1473 1472 1467 1456 1447 1447 1450 1449 1443 1444 1444 1445 1446 1447 1448 1448 1449 1451 1453 1456 1460 1464 1468 1473 1477 1480 1483 1485 1486 1486 1487 1486 1485 1484 1482 1480 1477 1474 1471 1468 1464 1460 1456 1452
1469 1469 1467 1451 1440 1439 1444 1448 1438 1438 1440 1443 1445 1451 1448 1446 1448 1450 1453 1456 1460 1464 1468 1472 1475 1478 1480 1481 1482 1482 1482 1481 1480 1479 1476 1474 1471 1468 1464 1460 1456 1452 1448 1444
1463 1463 1456 1441 1437 1440 1451 1444 1435 1435 1436 1439 1441 1443 1444 1445 1447 1450 1453 1456 1460 1463 1467 1470 1473 1475 1476 1477 1478 1478 1477 1476 1475 1473 1470 1467 1464 1461 1457 1452 1448 1444 1439 1435
1457 1460 1454 1433 1436 1438 1435 1432 1432 1433 1435 1437 1439 1440 1442 1444 1447 1450 1453 1456 1460 1463 1466 1469 1471 1472 1473 1474 1474 1473 1472 1470 1469 1466 1464 1461 1457 1453 1449 1445 1439 1434 1429 1424
1436 1436 1428 1426 1427 1427 1428 1430 1431 1432 1434 1436 1438 1439 1441 1444 1447 1450 1453 1456 1459 1462 1464 1466 1468 1469 1469 1470 1469 1468 1466 1464 1462 1459 1457 1453 1449 1445 1441 1436 1431 1426 1421 1415
1430 1426 1423 1423 1424 1425 1427 1428 1430 1432 1433 1435 1436 1438 1441 1444 1447 1450 1453 1456 1458 1461 1462 1464 1465 1465 1465 1465 1464 1462 1460 1458 1455 1452 1449 1445 1442 1437 1432 1428 1423 1418 1412 1407
1423 1421 1421 1421 1421 1423 1425 1427 1428 1430 1432 1433 1435 1438 1440 1443 1446 1449 1452 1455 1457 1459 1460 1461 1462 1461 1461 1460 1458 1456 1453 1451 1448 1444 1441 1436 1433 1429 1424 1420 1416 1411 1405 1400
1416 1414 1415 1416 1417 1420 1422 1424 1426 1428 1430 1432 1434 1436 1439 1442 1446 1448 1451 1453 1455 1456 1457 1457 1457 1457 1456 1454 1452 1449 1446 1443 1440 1436 1432 1428 1423 1418 1415 1412 1407 1403 1398 1394
1406 1408 1411 1413 1415 1418 1420 1422 1424 1426 1428 1431 1433 1436 1439 1442 1445 1447 1450 1451 1453 1453 1454 1453 1453 1452 1450 1448 1445 1442 1439 1435 1432 1428 1424 1419 1415 1409 1403 1399 1397 1393 1389 1384
1404 1406 1409 1411 1413 1416 1418 1420 1423 1425 1427 1430 1432 1435 1438 1441 1443 1446 1448 1449 1450 1450 1449 1449 1447 1446 1444 1441 1438 1435 1432 1428 1424 1420 1416 1411 1407 1402 1397 1390 1385 1380 1378 1375
1402 1404 1406 1408 1411 1414 1416 1418 1421 1423 1426 1429 1432 1434 1437 1440 1442 1444 1445 1445 1446 1445 1445 1443 1442 1440 1438 1434 1431 1427 1423 1420 1416 1411 1407 1403 1398 1394 1389 1384 1378 1372 1367 1363
1399 1402 1404 1406 1408 1411 1414 1417 1419 1422 1425 1428 1431 1434 1436 1438 1440 1441 1442 1442 1441 1441 1439 1438 1435 1433 1430 1427 1423 1419 1415 1412 1408 1403 1399 1394 1390 1385 1380 1375 1370 1365 1360 1355
1396 1399 1401 1404 1407 1410 1413 1415 1418 1421 1425 1427 1430 1433 1435 1436 1437 1438 1438 1438 1437 1435 1434 1432 1429 1426 1422 1419 1415 1410 1406 1403 1399 1395 1390 1386 1381 1376 1371 1367 1362 1356 1352 1348
1393 1396 1399 1401 1405 1408 1412 1415 1418 1421 1424 1427 1429 1431 1433 1434 1434 1434 1434 1433 1431 1429 1428 1425 1421 1418 1414 1411 1407 1402 1398 1394 1390 1385 1381 1376 1372 1367 1363 1358 1353 1348 1342 1338
1391 1395 1398 1401 1405 1408 1411 1415 1418 1421 1424 1426 1428 1429 1430 1431 1430 1430 1429 1427 1425 1422 1420 1417 1414 1410 1406 1402 1398 1394 1389 1385 1380 1376 1372 1367 1363 1358 1354 1349 1344 1339 1334 1329
1391 1394 1398 1401 1405 1409 1412 1415 1418 1421 1423 1425 1426 1427 1427 1427 1426 1425 1423 1421 1419 1416 1412 1408 1405 1401 1397 1393 1389 1385 1380 1376 1371 1367 1362 1357 1353 1348 1344 1339 1334 1329 1325 1320
1392 1396 1399 1403 1407 1410 1413 1416 1418 1420 1422 1423 1424 1424 1423 1422 1421 1419 1416 1413 1412 1408 1404 1400 1397 1392 1388 1384 1380 1376 1371 1367 1362 1358 1353 1348 1343 1338 1334 1329 1325 1320 1316 1311
1394 1398 1402 1405 1408 1411 1414 1417 1418 1420 1420 1421 1420 1420 1419 1417 1415 1413 1410 1407 1403 1400 1395 1391 1388 1384 1379 1375 1371 1366 1362 1357 1353 1348 1343 1338 1333 1328 1324 1319 1315 1311 1307 1302
1397 1401 1404 1407 1410 1412 1414 1416 1417 1418 1418 1417 1417 1415 1413 1411 1409 1406 1402 1399 1395 1391 1387 1383 1378 1374 1370 1366 1361 1356 1352 1347 1342 1337 1332 1328 1323 1319 1314 1310 1305 1301 1297 1293
1400 1404 1406 1409 1411 1413 1414 1414 1415 1415 1414 1413 1412 1410 1408 1405 1402 1399 1395 1391 1387 1382 1377 1373 1369 1365 1360 1355 1350 1346 1341 1336 1331 1326 1322 1317 1313 1309 1305 1300 1296 1291 1287 1283
1403 1405 1407 1409 1410 1411 1412 1412 1412 1411 1410 1409 1407 1405 1402 1398 1394 1390 1386 1382 1377 1373 1368 1363 1359 1354 1350 1345 1340 1335 1330 1326 1321 1317 1312 1308 1303 1299 1294 1290 1286 1282 1277 1273
1404 1406 1407 1408 1409 1409 1409 1409 1408 1407 1405 1402 1400 1398 1395 1391 1387 1382 1377 1372 1368 1363 1358 1353 1349 1344 1339 1334 1329 1325 1320 1315 1311 1306 1302 1297 1293 1289 1285 1280 1276 1272 1267 1263
1404 1406 1406 1407 1407 1407 1406 1405 1403 1401 1399 1396 1392 1390 1386 1382 1378 1373 1369 1364 1359 1354 1349 1344 1339 1334 1329 1324 1319 1314 1310 1305 1301 1296 1292 1287 1283 1279 1274 1270 1266 1262 1257 1253